Date String (YYYY-MM-DD hh:mm:ss) UTC,Instrument flags,absolute air pressure of the measurement (hPa),sample flow rate (lpm),inlet stack bypass flow (lpm),air temperature of the measurement (°C),ambient temperature measured by the external sensor (°C),aerosol sample conditioner tube jacket temperature (°C),OPC LED temperature (°C),internal box temperature (°C),relative humidity of the measurement (%),span deviation,mass concentration of particles derived from Lorenz-Mie calculation of OPC scattering (μg/m³),mass concentration of particles derived from Lorenz-Mie calculation of OPC scattering (μg/m³),mass concentration of particles derived from Lorenz-Mie calculation of OPC scattering (μg/m³)
DateTimeUTC,F1_M11,P_M11,Q1_M11,Q2_M11,T1_M11,T2_M11,T3_M11,T4_M11,T5_M11,U1_M11,ZSPAN_M11,X0_M11,X2_M11,X1_M11
2023-10-11 07:00:00,SystemResetWarning,0818.5,5.00,000.00,028.4,026.8,000.0,036.9,030.0,12.2,0000.0,0008.34,0004.07,0003.72
2023-10-11 07:01:00,SystemResetWarning,0818.5,5.00,000.00,028.4,026.9,000.0,036.9,030.0,12.2,0000.0,0008.28,0004.03,0003.70
2023-10-11 07:02:00,SystemResetWarning,0818.5,5.01,000.00,028.4,026.9,000.0,036.9,030.1,12.2,0000.0,0007.24,0004.02,0003.69
2023-10-11 07:03:00,SystemResetWarning,0818.5,5.00,000.00,028.4,027.0,000.0,036.9,030.1,12.2,0000.0,0006.86,0004.02,0003.69
2023-10-11 07:04:00,SystemResetWarning,0818.5,4.99,000.00,028.4,027.0,000.0,036.9,030.1,12.2,0000.0,0006.75,0003.99,0003.66
2023-10-11 07:05:00,SystemResetWarning,0818.6,4.99,000.00,028.5,027.0,000.0,036.9,030.1,12.2,0000.0,0007.33,0003.99,0003.65
2023-10-11 07:06:00,SystemResetWarning,0818.5,4.99,000.00,028.5,027.0,000.0,036.9,030.1,12.2,0000.0,0007.22,0003.99,0003.65
2023-10-11 07:07:00,SystemResetWarning,0818.5,5.00,000.00,028.5,027.1,000.0,036.9,030.1,12.2,0000.0,0007.15,0003.97,0003.64
2023-10-11 07:08:00,SystemResetWarning,0818.5,4.99,000.00,028.5,027.1,000.0,036.9,030.1,12.2,0000.0,0007.44,0003.97,0003.65
2023-10-11 07:09:00,SystemResetWarning,0818.5,5.00,000.00,028.5,027.1,000.0,036.9,030.2,12.2,0000.0,0007.50,0003.98,0003.66
2023-10-11 07:10:00,SystemResetWarning,0818.5,5.01,000.00,028.5,027.2,000.0,037.0,030.2,12.2,0000.0,0007.49,0004.00,0003.67
2023-10-11 07:11:00,SystemResetWarning,0818.5,5.01,000.00,028.5,027.2,000.0,037.0,030.2,12.2,0000.0,0007.54,0004.01,0003.67
2023-10-11 07:12:00,SystemResetWarning,0818.5,5.01,000.00,028.6,027.2,000.0,037.0,030.2,12.2,0000.0,0007.52,0004.03,0003.68
2023-10-11 07:13:00,SystemResetWarning,0818.5,5.00,000.00,028.6,027.2,000.0,037.0,030.2,12.2,0000.0,0007.56,0004.06,0003.71
2023-10-11 07:14:00,SystemResetWarning,0818.5,5.00,000.00,028.6,027.2,000.0,037.0,030.2,12.2,0000.0,0007.89,0004.06,0003.72
2023-10-11 07:15:00,SystemResetWarning,0818.5,5.00,000.00,028.6,027.2,000.0,037.0,030.2,12.2,0000.0,0007.97,0004.08,0003.75
2023-10-11 07:16:00,SystemResetWarning,0818.5,4.99,000.00,028.6,027.3,000.0,037.0,030.2,12.2,0000.0,0007.69,0004.10,0003.77
2023-10-11 07:17:00,SystemResetWarning,0818.5,5.00,000.00,028.6,027.3,000.0,037.0,030.2,12.2,0000.0,0007.67,0004.09,0003.78
2023-10-11 07:18:00,SystemResetWarning,0818.4,5.00,000.00,028.6,027.3,000.0,037.0,030.3,12.2,0000.0,0007.70,0004.12,0003.80
2023-10-11 07:19:00,SystemResetWarning,0818.4,5.00,000.00,028.6,027.3,000.0,037.0,030.3,12.2,0000.0,0007.52,0004.13,0003.80
2023-10-11 07:20:00,SystemResetWarning,0818.4,5.00,000.00,028.6,027.3,000.0,037.0,030.3,12.2,0000.0,0007.46,0004.16,0003.79
2023-10-11 07:21:00,SystemResetWarning,0818.4,5.00,000.00,028.7,027.3,000.0,037.1,030.3,12.2,0000.0,0007.47,0004.17,0003.80
2023-10-11 07:22:00,SystemResetWarning,0818.4,5.00,000.00,028.7,027.3,000.0,037.1,030.3,12.2,0000.0,0007.41,0004.17,0003.82
2023-10-11 07:23:00,SystemResetWarning,0818.4,5.00,000.00,028.7,027.3,000.0,037.1,030.3,12.2,0000.0,0007.42,0004.19,0003.83
2023-10-11 07:24:00,SystemResetWarning,0818.3,5.00,000.00,028.7,027.4,000.0,037.1,030.3,12.2,0000.0,0007.50,0004.19,0003.83
2023-10-11 07:25:00,SystemResetWarning,0818.3,5.00,000.00,028.7,027.4,000.0,037.1,030.4,12.2,0000.0,0007.08,0004.19,0003.83
2023-10-11 07:26:00,SystemResetWarning,0818.4,5.00,000.00,028.7,027.4,000.0,037.1,030.4,12.2,0000.0,0006.98,0004.19,0003.83
2023-10-11 07:27:00,SystemResetWarning,0818.3,5.00,000.00,028.7,027.4,000.0,037.1,030.4,12.2,0000.0,0006.79,0004.16,0003.83
2023-10-11 07:28:00,SystemResetWarning,0818.3,5.00,000.00,028.8,027.4,000.0,037.1,030.4,12.2,0000.0,0006.83,0004.18,0003.83
2023-10-11 07:29:00,SystemResetWarning,0818.3,5.00,000.00,028.8,027.4,000.0,037.2,030.4,12.2,0000.0,0006.79,0004.15,0003.82
2023-10-11 07:30:00,SystemResetWarning,0818.4,5.00,000.00,028.8,027.5,000.0,037.2,030.4,12.2,0000.0,0006.66,0004.12,0003.81
2023-10-11 07:31:00,SystemResetWarning,0818.3,5.00,000.00,028.8,027.5,000.0,037.2,030.4,12.3,0000.0,0007.22,0004.10,0003.81
2023-10-11 07:32:00,SystemResetWarning,0818.4,5.00,000.00,028.8,027.5,000.0,037.2,030.5,12.3,0000.0,0007.16,0004.08,0003.80
2023-10-11 07:33:00,SystemResetWarning,0818.4,4.99,000.00,028.8,027.5,000.0,037.2,030.5,12.3,0000.0,0007.07,0004.04,0003.79
2023-10-11 07:34:00,SystemResetWarning,0818.4,4.99,000.00,028.8,027.5,000.0,037.2,030.5,12.2,0000.0,0007.10,0004.03,0003.78
2023-10-11 07:35:00,SystemResetWarning,0818.4,5.00,000.00,028.8,027.5,000.0,037.2,030.5,12.2,0000.0,0007.18,0004.04,0003.77
2023-10-11 07:36:00,SystemResetWarning,0818.3,5.00,000.00,028.9,027.5,000.0,037.2,030.5,12.3,0000.0,0007.90,0004.06,0003.77
2023-10-11 07:37:00,SystemResetWarning,0818.3,5.00,000.00,028.9,027.6,000.0,037.3,030.5,12.3,0000.0,0008.00,0004.08,0003.76
2023-10-11 07:38:00,SystemResetWarning,0818.3,5.01,000.00,028.9,027.6,000.0,037.3,030.5,12.3,0000.0,0008.18,0004.08,0003.76
2023-10-11 07:39:00,SystemResetWarning,0818.3,5.00,000.00,028.9,027.6,000.0,037.3,030.5,12.3,0000.0,0008.74,0004.08,0003.76
2023-10-11 07:40:00,SystemResetWarning,0818.3,5.00,000.00,028.9,027.6,000.0,037.3,030.5,12.3,0000.0,0008.84,0004.10,0003.75
2023-10-11 07:41:00,SystemResetWarning,0818.3,4.99,000.00,028.9,027.6,000.0,037.3,030.5,12.2,0000.0,0008.86,0004.10,0003.74
2023-10-11 07:42:00,SystemResetWarning,0818.3,5.00,000.00,028.9,027.6,000.0,037.3,030.6,12.2,0000.0,0008.58,0004.09,0003.72
2023-10-11 07:43:00,SystemResetWarning,0818.3,4.99,000.00,028.9,027.6,000.0,037.3,030.6,12.2,0000.0,0008.44,0004.07,0003.70
2023-10-11 07:44:00,SystemResetWarning,0818.3,5.00,000.00,028.9,027.6,000.0,037.3,030.6,12.2,0000.0,0008.43,0004.06,0003.68
2023-10-11 07:45:00,SystemResetWarning,0818.3,5.00,000.00,029.0,027.6,000.0,037.4,030.6,12.3,0000.0,0008.38,0004.04,0003.65
2023-10-11 07:46:00,SystemResetWarning,0818.3,5.00,000.00,029.0,027.7,000.0,037.4,030.6,12.2,0000.0,0008.30,0004.02,0003.63
2023-10-11 07:47:00,SystemResetWarning,0818.2,5.01,000.00,029.0,027.7,000.0,037.4,030.6,12.3,0000.0,0007.49,0003.96,0003.61
2023-10-11 07:48:00,SystemResetWarning,0818.3,5.01,000.00,029.0,027.7,000.0,037.4,030.6,12.2,0000.0,0007.40,0003.94,0003.59
2023-10-11 07:49:00,SystemResetWarning,0818.3,5.01,000.00,029.0,027.7,000.0,037.4,030.6,12.2,0000.0,0007.45,0003.94,0003.58
2023-10-11 07:50:00,SystemResetWarning,0818.2,4.99,000.00,029.0,026.8,000.0,037.4,030.6,12.2,0000.0,0006.64,0003.94,0003.55
2023-10-11 07:51:00,SystemResetWarning,0818.2,5.00,000.00,028.9,024.8,000.0,037.3,030.4,12.2,0000.0,0006.52,0003.92,0003.55
2023-10-11 07:52:00,SystemResetWarning,0818.2,5.01,000.00,028.8,024.3,000.0,037.2,030.2,12.3,0000.0,0006.87,0003.92,0003.56
2023-10-11 07:53:00,SystemResetWarning,0818.2,5.01,000.00,028.7,024.5,000.0,037.2,030.0,12.4,0000.0,0007.31,0003.92,0003.56
2023-10-11 07:54:00,SystemResetWarning,0818.2,5.00,000.00,028.6,024.8,000.0,037.2,029.9,12.5,0000.0,0007.40,0003.94,0003.57
2023-10-11 07:55:00,SystemResetWarning,0818.1,5.00,000.00,028.5,025.2,000.0,037.2,030.0,12.5,0000.0,0007.81,0003.97,0003.57
2023-10-11 07:56:00,SystemResetWarning,0818.1,4.98,000.00,028.5,025.6,000.0,037.2,030.0,12.5,0000.0,0007.94,0003.99,0003.59
2023-10-11 07:57:00,SystemResetWarning,0818.1,5.01,000.00,028.5,025.9,000.0,037.2,030.0,12.6,0000.0,0007.91,0003.98,0003.59
2023-10-11 07:58:00,SystemResetWarning,0818.1,5.01,000.00,028.5,026.1,000.0,037.1,030.1,12.6,0000.0,0007.99,0004.00,0003.58
2023-10-11 07:59:00,SystemResetWarning,0818.1,5.00,000.00,028.5,026.3,000.0,037.1,030.1,12.6,0000.0,0007.94,0003.97,0003.56
